Date String (YYYY-MM-DD hh:mm:ss) UTC,Instrument flags,absolute air pressure of the measurement (hPa),sample flow rate (lpm),inlet stack bypass flow (lpm),air temperature of the measurement (°C),ambient temperature measured by the external sensor (°C),aerosol sample conditioner tube jacket temperature (°C),OPC LED temperature (°C),internal box temperature (°C),relative humidity of the measurement (%),span deviation,mass concentration of particles derived from Lorenz-Mie calculation of OPC scattering (μg/m³),mass concentration of particles derived from Lorenz-Mie calculation of OPC scattering (μg/m³),mass concentration of particles derived from Lorenz-Mie calculation of OPC scattering (μg/m³)
DateTimeUTC,F1_M11,P_M11,Q1_M11,Q2_M11,T1_M11,T2_M11,T3_M11,T4_M11,T5_M11,U1_M11,ZSPAN_M11,X0_M11,X2_M11,X1_M11
2024-04-07 15:00:00,SystemResetWarning,0818.4,5.00,000.00,018.6,017.7,000.0,027.2,020.0,010.0,0000.0,0007.79,0001.35,0000.62
2024-04-07 15:01:00,SystemResetWarning,0818.4,5.00,000.00,018.5,017.6,000.0,027.2,020.0,010.3,0000.0,0007.90,0001.30,0000.62
2024-04-07 15:02:00,SystemResetWarning,0818.3,5.00,000.00,018.5,017.5,000.0,027.2,020.0,010.4,0000.0,0007.48,0001.27,0000.62
2024-04-07 15:03:00,SystemResetWarning,0818.0,5.00,000.00,018.5,017.8,000.0,027.2,020.3,010.3,0000.0,0007.51,0001.27,0000.63
2024-04-07 15:04:00,SystemResetWarning,0818.2,5.01,000.00,018.7,018.9,000.0,027.3,020.9,009.9,0000.0,0007.55,0001.31,0000.63
2024-04-07 15:05:00,SystemResetWarning,0818.4,4.99,000.00,019.0,019.4,000.0,027.3,021.3,009.7,0000.0,0007.08,0001.32,0000.63
2024-04-07 15:06:00,SystemResetWarning,0818.4,4.99,000.00,019.0,019.1,000.0,027.3,021.0,009.8,0000.0,0006.21,0001.31,0000.63
2024-04-07 15:07:00,SystemResetWarning,0818.3,5.01,000.00,019.0,018.8,000.0,027.3,020.8,009.9,0000.0,0006.43,0001.30,0000.63
2024-04-07 15:08:00,SystemResetWarning,0818.3,5.01,000.00,018.9,018.6,000.0,027.3,020.6,009.9,0000.0,0006.26,0001.29,0000.63
2024-04-07 15:09:00,SystemResetWarning,0818.3,4.99,000.00,018.9,018.4,000.0,027.3,020.5,009.9,0000.0,0005.51,0001.28,0000.63
2024-04-07 15:10:00,SystemResetWarning,0818.4,4.99,000.00,018.8,018.2,000.0,027.3,020.4,010.0,0000.0,0005.15,0001.32,0000.64
2024-04-07 15:11:00,SystemResetWarning,0818.4,5.02,000.00,018.8,018.0,000.0,027.3,020.3,010.1,0000.0,0004.89,0001.36,0000.64
2024-04-07 15:12:00,SystemResetWarning,0818.2,5.00,000.00,018.7,017.9,000.0,027.3,020.2,010.3,0000.0,0005.37,0001.38,0000.63
2024-04-07 15:13:00,SystemResetWarning,0818.3,5.00,000.00,018.7,017.8,000.0,027.2,020.2,010.2,0000.0,0005.70,0001.40,0000.63
2024-04-07 15:14:00,SystemResetWarning,0818.3,4.99,000.00,018.6,017.7,000.0,027.2,020.0,010.2,0000.0,0005.49,0001.35,0000.62
2024-04-07 15:15:00,SystemResetWarning,0818.5,5.00,000.00,018.5,017.5,000.0,027.2,020.0,010.1,0000.0,0005.49,0001.30,0000.62
2024-04-07 15:16:00,SystemResetWarning,0818.3,5.00,000.00,018.5,017.4,000.0,027.2,020.0,010.2,0000.0,0005.34,0001.27,0000.61
2024-04-07 15:17:00,SystemResetWarning,0818.4,5.01,000.00,018.5,018.0,000.0,027.3,020.4,010.2,0000.0,0005.36,0001.26,0000.60
2024-04-07 15:18:00,SystemResetWarning,0818.6,5.02,000.00,018.8,019.1,000.0,027.4,021.1,010.0,0000.0,0005.96,0001.26,0000.60
2024-04-07 15:19:00,SystemResetWarning,0818.6,4.99,000.00,019.1,019.4,000.0,027.3,021.3,009.8,0000.0,0006.53,0001.22,0000.60
2024-04-07 15:20:00,SystemResetWarning,0818.6,4.99,000.00,019.0,019.1,000.0,027.3,021.0,009.8,0000.0,0008.01,0001.23,0000.58
2024-04-07 15:21:00,SystemResetWarning,0818.6,5.01,000.00,019.0,018.7,000.0,027.3,020.8,009.9,0000.0,0008.04,0001.21,0000.57
2024-04-07 15:22:00,SystemResetWarning,0818.6,5.00,000.00,018.9,018.4,000.0,027.3,020.6,009.9,0000.0,0007.94,0001.18,0000.56
2024-04-07 15:23:00,SystemResetWarning,0818.6,5.00,000.00,018.9,018.2,000.0,027.3,020.5,009.9,0000.0,0007.08,0001.15,0000.57
2024-04-07 15:24:00,SystemResetWarning,0818.7,5.00,000.00,018.8,018.0,000.0,027.3,020.4,009.8,0000.0,0006.80,0001.17,0000.58
2024-04-07 15:25:00,SystemResetWarning,0818.7,5.00,000.00,018.8,017.9,000.0,027.3,020.3,010.0,0000.0,0006.81,0001.18,0000.57
2024-04-07 15:26:00,SystemResetWarning,0818.7,5.00,000.00,018.7,017.7,000.0,027.3,020.2,009.9,0000.0,0006.79,0001.21,0000.57
2024-04-07 15:27:00,SystemResetWarning,0818.6,5.00,000.00,018.6,017.6,000.0,027.3,020.1,009.9,0000.0,0007.75,0001.23,0000.58
2024-04-07 15:28:00,SystemResetWarning,0818.4,5.02,000.00,018.5,017.5,000.0,027.3,020.0,010.0,0000.0,0007.92,0001.22,0000.58
2024-04-07 15:29:00,SystemResetWarning,0818.5,5.00,000.00,018.5,017.4,000.0,027.3,020.0,010.0,0000.0,0007.57,0001.21,0000.57
2024-04-07 15:30:00,SystemResetWarning,0818.4,5.00,000.00,018.5,017.3,000.0,027.2,020.0,010.0,0000.0,0007.35,0001.24,0000.56
2024-04-07 15:31:00,SystemResetWarning,0818.6,5.00,000.00,018.4,017.3,000.0,027.2,020.0,009.9,0000.0,0005.02,0001.23,0000.57
2024-04-07 15:32:00,SystemResetWarning,0818.2,4.99,000.00,018.4,017.2,000.0,027.2,020.0,010.1,0000.0,0004.78,0001.18,0000.58
2024-04-07 15:33:00,SystemResetWarning,0818.4,5.01,000.00,018.4,017.3,000.0,027.3,020.1,010.1,0000.0,0004.87,0001.15,0000.58
2024-04-07 15:34:00,SystemResetWarning,0818.5,5.02,000.00,018.6,018.4,000.0,027.3,020.7,010.0,0000.0,0005.08,0001.16,0000.56
2024-04-07 15:35:00,SystemResetWarning,0818.6,4.99,000.00,018.9,019.3,000.0,027.4,021.3,009.9,0000.0,0005.59,0001.13,0000.56
2024-04-07 15:36:00,SystemResetWarning,0818.6,4.99,000.00,019.0,019.2,000.0,027.3,021.1,009.8,0000.0,0005.67,0001.13,0000.56
2024-04-07 15:37:00,SystemResetWarning,0818.6,5.00,000.00,019.0,018.8,000.0,027.3,020.9,009.8,0000.0,0005.75,0001.15,0000.56
2024-04-07 15:38:00,SystemResetWarning,0818.5,5.00,000.00,018.9,018.6,000.0,027.3,020.7,009.7,0000.0,0005.22,0001.23,0000.56
2024-04-07 15:39:00,SystemResetWarning,0818.6,5.00,000.00,018.9,018.3,000.0,027.3,020.5,009.7,0000.0,0004.78,0001.29,0000.56
2024-04-07 15:40:00,SystemResetWarning,0818.5,5.00,000.00,018.8,018.1,000.0,027.3,020.4,009.8,0000.0,0004.73,0001.34,0000.57
2024-04-07 15:41:00,SystemResetWarning,0818.4,5.00,000.00,018.7,017.9,000.0,027.3,020.3,009.7,0000.0,0004.65,0001.31,0000.58
2024-04-07 15:42:00,SystemResetWarning,0818.5,5.00,000.00,018.7,017.8,000.0,027.3,020.2,009.8,0000.0,0004.84,0001.40,0000.58
2024-04-07 15:43:00,SystemResetWarning,0818.3,5.00,000.00,018.6,017.7,000.0,027.3,020.1,009.9,0000.0,0005.08,0001.47,0000.57
2024-04-07 15:44:00,SystemResetWarning,0818.3,5.00,000.00,018.6,017.6,000.0,027.2,020.1,009.7,0000.0,0005.38,0001.52,0000.56
2024-04-07 15:45:00,SystemResetWarning,0818.3,5.00,000.00,018.5,017.5,000.0,027.2,020.0,009.8,0000.0,0006.19,0001.52,0000.56
2024-04-07 15:46:00,SystemResetWarning,0818.6,5.00,000.00,018.5,017.5,000.0,027.2,020.0,009.8,0000.0,0005.94,0001.51,0000.56
2024-04-07 15:47:00,SystemResetWarning,0818.6,5.00,000.00,018.4,017.4,000.0,027.2,020.0,010.0,0000.0,0005.54,0001.48,0000.56
2024-04-07 15:48:00,SystemResetWarning,0818.7,5.00,000.00,018.4,017.4,000.0,027.2,020.0,010.0,0000.0,0007.00,0001.45,0000.56
2024-04-07 15:49:00,SystemResetWarning,0818.7,5.00,000.00,018.4,017.4,000.0,027.2,020.0,009.9,0000.0,0007.06,0001.38,0000.56
2024-04-07 15:50:00,SystemResetWarning,0818.7,5.00,000.00,018.4,017.5,000.0,027.2,020.1,009.8,0000.0,0007.03,0001.28,0000.55
2024-04-07 15:51:00,SystemResetWarning,0818.8,5.01,000.00,018.6,018.4,000.0,027.3,020.7,009.6,0000.0,0006.97,0001.27,0000.55
2024-04-07 15:52:00,SystemResetWarning,0818.8,4.99,000.00,018.9,019.4,000.0,027.3,021.3,009.5,0000.0,0006.84,0001.25,0000.55
2024-04-07 15:53:00,SystemResetWarning,0819.0,4.99,000.00,019.0,019.4,000.0,027.3,021.2,009.3,0000.0,0006.54,0001.15,0000.55
2024-04-07 15:54:00,SystemResetWarning,0818.8,5.00,000.00,019.0,019.1,000.0,027.3,021.0,009.4,0000.0,0006.45,0001.12,0000.55
2024-04-07 15:55:00,SystemResetWarning,0818.8,5.01,000.00,019.0,018.8,000.0,027.3,020.7,009.4,0000.0,0006.16,0001.16,0000.56
2024-04-07 15:56:00,SystemResetWarning,0819.1,5.00,000.00,018.9,018.5,000.0,027.3,020.6,009.6,0000.0,0005.74,0001.17,0000.57
2024-04-07 15:57:00,SystemResetWarning,0819.0,5.00,000.00,018.9,018.4,000.0,027.3,020.5,009.8,0000.0,0005.72,0001.17,0000.58
2024-04-07 15:58:00,SystemResetWarning,0819.1,5.00,000.00,018.8,018.2,000.0,027.3,020.4,009.6,0000.0,0005.77,0001.19,0000.59
2024-04-07 15:59:00,SystemResetWarning,0819.0,5.00,000.00,018.8,018.1,000.0,027.3,020.3,009.6,0000.0,0004.79,0001.29,0000.60
